Regional Weather Roundup
Issued by NWS

Home | Current Version | Previous Version | Text Only | Print | Product List | Glossary On
Versions: 1 2 3 4 5 6 7 8 9 10 11 12 13 14 15 16 17 18 19 20 21 22 23 24 25 26 27 28 29 30 31 32 33 34 35 36 37 38 39 40 41 42 43 44 45 46 47 48 49 50
000
ASUS43 KLMK 221702
RWRKY
KENTUCKY REGIONAL WEATHER ROUNDUP
NATIONAL WEATHER SERVICE LOUISVILLE KY
100 PM EDT FRI AUG 22 2014

NOTE "FAIR" INDICATES FEW OR NO CLOUDS BELOW 12,000 FEET
WITH NO SIGNIFICANT WEATHER AND/OR OBSTRUCTIONS TO VISIBILITY.

KYZ001>023-026-027-061>063-070>075-221800-
WESTERN AND SOUTH CENTRAL KENTUCKY

CITY           SKY/WX    TMP DP  RH WIND       PRES   REMARKS
PADUCAH        PTSUNNY   90  76  63 W6        30.04F HX 101
HENDERSON      PTSUNNY   90  75  62 W8        30.02F HX 100
OWENSBORO      PTSUNNY   88  76  67 W8        30.04F HX  99
HOPKINSVILLE   PTSUNNY   88  76  67 W9        30.07F HX  99
BOWLING GREEN  CLOUDY    86  73  65 W9        30.06F HX  93
GLASGOW        PTSUNNY   85  73  68 SW8       30.08F HX  91
$$

KYZ024-025-028>034-038-045-046-053-221800-
NORTH CENTRAL KENTUCKY

CITY           SKY/WX    TMP DP  RH WIND       PRES   REMARKS
LOUISVILLE/SDF CLOUDY    86  74  67 W10       30.02S HX  94
LOUISVILLE/LOU PTSUNNY   87  74  64 SW5       30.02F HX  95
FORT KNOX      CLOUDY    85  75  72 SW8       30.04F HX  93
$$

KYZ035>037-039>044-047>052-055>060-089>105-221800-
NORTHEAST KENTUCKY

CITY           SKY/WX    TMP DP  RH WIND       PRES   REMARKS
LEXINGTON      PTSUNNY   86  74  67 W10       30.05S HX  94
COVINGTON      CLOUDY    79  74  84 SW8       29.99F
FRANKFORT      CLOUDY    83  73  72 VRB6      30.03F
$$

KYZ054-064>069-076>088-106>120-221800-
SOUTHEAST KENTUCKY

CITY           SKY/WX    TMP DP  RH WIND       PRES   REMARKS
JACKSON        PTSUNNY   83  74  74 VRB6      30.07F
LONDON         MOSUNNY   87  71  58 SW9       30.09F HX  93
SOMERSET       PTSUNNY   82  72  69 W10       30.09F
MIDDLESBORO    MOSUNNY   88  71  57 W6        30.10F HX  94
MONTICELLO     PTSUNNY   87  76  69 W8        30.11F HX  97
$$



USA.gov is the U.S. government's official web portal to all federal, state and local government web resources and services.